STARLINK-11235, 60726

Orbit data source: Space-Track

STARLINK-11235, 60726 is a payload satellite owned by SpaceX/Seattle (US) in LEO that was launched on Wed, 28 Aug 2024 UTC via an FALCON 9 launch vehicle from the Air Force Eastern Test Range (AFETR). Payload-class satellites include a variety of spacecraft equipped with specific instruments for various scientific and technological missions. These include communications satellites like Starlink; space stations such as the ISS; scientific satellites like the Hubble; Earth observation satellites from companies like Planet Labs, Umbra, and HawkEye 360; GPS; miniature CubeSats for education and research; and military/defense satellites.

Loading next visibility...
Identifier
60726, 2024-152G
Orbit
LEO
Country
Flag of USUS
Related business
Manufacturer
SpaceX/Seattle
Mission
Operational Commercial Communications
Bus & Motor
STARLINK V2MD, Unknown motor
Mass
960 kg wet, ~910 kg dry
Launch date (UTC)
2024-08-28 (1 year ago)
Launch vehicle
FALCON 9
Launch site
Air Force Eastern Test Range (AFETR)
Object type
Payload
Rocket body
Debris
Shape & HBR
Box + 2 Pan, 18.1 m
Radar Cross Section
36.964 m², Large (>1 m²)

Expand to show TLE details & history
Last TLE update: 23 hours ago

TLE from 23 hours ago
0 STARLINK-11235
1 60726U 24152G   25309.45973302  .00002904  00000-0  28813-4 0  9998
2 60726  53.1594   8.6462 0001402  95.6572 264.4606 15.69717912 69457
Epoch: 2025-11-05T11:02Z
TLE epoch observation values (Epoch: 2025-11-05T11:02:00.932Z)
Latitude
-0.00003°
Longitude
158.2102°
Altitude
360.71 km
Speed
7.694 km/s
True Right ascension
00h 34m 35s
True Declination
0° 00' 00"
Sunlit
Object was in full shadow at epoch
Visualization orbit readout
Latitude
Unknown
Longitude
Unknown
Altitude
Unknown
Speed
Unknown
Apparent Right ascension
Unknown
Apparent Declination
Unknown
Sunlit
N/A
Visualization observer readout
Local Sidereal Time
06:09:19
Azimuth
Unknown
Elevation
Unknown
Doppler factor
Unknown
Orbital elements
Apogee altitude
360.91 km
Perigee altitude
359.02 km
Semi-major axis
6,738.102 km
Eccentricity
0.00014
Inclination
53.1594°
RAAN
8.6462°
Arg. of periapsis
95.6572°
True anomaly
264.44461°
Mean anomaly
264.4606°
Eccentric anomaly
264.4526°
Mean motion
3.92407 °/min
Orbital period
91.74 mins
BSTAR
0.000028813
Loading maneuver chart data...
Computing Atmospheric mass density...
Loading historical data...
Loading historical data...
Loading historical data...
Loading historical data...
Loading historical data...
Loading historical data...
Loading historical data...

Documentation

Showing up to 5 results
|